Weather History for KCAG - November, 2013

Change the Weather History Date:

Saturday, November 9, 2013

  Actual Average Record
Temperature  
Mean Temperature 41 °F 34 °F  
Max Temperature 59 °F 47 °F 65 °F (2014)
Min Temperature 22 °F 20 °F 10 °F (2011)
Degree Days  
Heating Degree Days 24 31  
Month to date heating degree days 300 268  
Since 1 July heating degree days 1190 1313  
Cooling Degree Days 0 0  
Month to date cooling degree days 0 0  
Year to date cooling degree days 377 142  
Moisture  
Dew Point 24 °F    
Average Humidity 60    
Maximum Humidity 92    
Minimum Humidity 28    
Precipitation  
Precipitation 0.00 in 0.05 in 0.18 in (2000)
Month to date precipitation 0.35 0.49  
Year to date precipitation 11.86 14.10  
Sea Level Pressure  
Sea Level Pressure 30.25 in    
Wind  
Wind Speed 2 mph (WSW)    
Max Wind Speed 14 mph    
Max Gust Speed 17 mph    
Visibility 10 miles    
Events      
T = Trace of Precipitation, MM = Missing Value Source: NWS Daily Summary

Daily Weather History Graph

Daily Weather History Graph

Search for Another Location

Airport or City:

Trip Planner

Search our weather history database for the weather conditions in past years. The results will help you decide how hot, cold, wet, or windy it might be!

Date:

Astronomy

Nov. 09, 2013 Rise Set
Actual Time 6:49 AM MST 4:57 PM MST
Civil Twilight 6:20 AM MST 5:26 PM MST
Nautical Twilight 5:48 AM MST 5:59 PM MST
Astronomical Twilight 5:16 AM MST 6:31 PM MST
Moon 12:28 PM MST (11/9) 11:31 PM MST (11/9)
Length of Visible Light 11h 05m
Length of Day
10h 07m
Waxing Crescent, 45% of the Moon is Illuminated
Nov 9
Waxing Crescent
Nov 9
First Quarter
Nov 17
Full
Nov 25
Last Quarter
Dec 2
New

Hourly Weather History & Observations

Time (MST) Temp. Windchill Dew Point Humidity Pressure Visibility Wind Dir Wind Speed Gust Speed Precip Events Conditions
12:53 AM 27.0 °F - 23.0 °F 85% 30.14 in 10.0 mi Calm Calm - N/A   Clear
1:53 AM 25.0 °F - 21.9 °F 88% 30.15 in 10.0 mi Calm Calm - N/A   Clear
2:53 AM 23.0 °F - 19.9 °F 88% 30.18 in 10.0 mi Calm Calm - N/A   Clear
3:53 AM 23.0 °F - 19.9 °F 88% 30.20 in 10.0 mi Calm Calm - N/A   Mostly Cloudy
4:53 AM 24.1 °F - 21.0 °F 88% 30.25 in 10.0 mi Calm Calm - N/A   Overcast
5:53 AM 24.1 °F - 21.0 °F 88% 30.28 in 10.0 mi Calm Calm - N/A   Partly Cloudy
6:53 AM 21.9 °F 15.7 °F 19.9 °F 92% 30.32 in 10.0 mi SW 4.6 mph - N/A   Clear
7:53 AM 27.0 °F 21.6 °F 24.1 °F 89% 30.34 in 10.0 mi SW 4.6 mph - N/A   Clear
8:53 AM 33.1 °F - 28.0 °F 82% 30.31 in 10.0 mi Calm Calm - N/A   Clear
9:53 AM 44.1 °F - 30.0 °F 58% 30.27 in 10.0 mi Calm Calm - N/A   Clear
10:53 AM 50.0 °F - 25.0 °F 38% 30.24 in 10.0 mi ENE 6.9 mph - N/A   Clear
11:53 AM 54.0 °F - 26.1 °F 34% 30.21 in 10.0 mi Calm Calm - N/A   Clear
12:53 PM 55.9 °F - 25.0 °F 30% 30.17 in 10.0 mi WSW 3.5 mph - N/A   Clear
1:53 PM 57.9 °F - 25.0 °F 28% 30.16 in 10.0 mi West 8.1 mph - N/A   Clear
2:53 PM 57.9 °F - 24.1 °F 27% 30.17 in 10.0 mi West 12.7 mph - N/A   Clear
3:53 PM 55.9 °F - 25.0 °F 30% 30.19 in 10.0 mi West 6.9 mph - N/A   Clear
4:53 PM 46.9 °F - 26.1 °F 44% 30.24 in 10.0 mi West 5.8 mph - N/A   Clear
5:53 PM 39.9 °F - 27.0 °F 60% 30.30 in 10.0 mi Calm Calm - N/A   Clear
6:53 PM 36.0 °F - 27.0 °F 70% 30.34 in 10.0 mi Calm Calm - N/A   Clear
7:53 PM 33.1 °F - 26.1 °F 75% 30.34 in 10.0 mi Calm Calm - N/A   Clear
8:53 PM 30.9 °F - 25.0 °F 79% 30.34 in 10.0 mi Calm Calm - N/A   Clear
9:53 PM 26.1 °F - 23.0 °F 88% 30.33 in 10.0 mi Calm Calm - N/A   Clear
10:53 PM 26.1 °F - 23.0 °F 88% 30.30 in 10.0 mi Calm Calm - N/A   Clear
11:53 PM 27.0 °F - 23.0 °F 85% 30.28 in 10.0 mi Calm Calm - N/A   Clear